"Timestamp","TZ","WindDir_Mean (deg)","WindSpd_Mean (km/h)","WindSpd_Min (km/h)","WindSpd_Max (km/h)","Temp_Mean (deg)","RH_Mean (%)","MSLP_Mean (hPa)","Rain_Acc (mm)","Rain_Intensity (mm/h)","Hail_Acc (hits/cm2)","Hail_Intensity (hits/cm2hr)","Solar_Mean (W/m2)"
2021/12/13 00:00:00.015,n,86,5.76,5.04,6.12,22.4,68.1,1014.22,0,0,0,0,0.024376
2021/12/13 00:01:00.000,n,92,4.68,3.96,6.12,22.4,68.2,1014.12,0,0,0,0,0.023537
2021/12/13 00:02:00.000,n,111,1.8,1.08,3.24,22.4,68.3,1014.22,0,0,0,0,0.025253
2021/12/13 00:03:00.000,n,162,1.8,0.72,3.6,22.4,68.3,1014.22,0,0,0,0,0.027008
2021/12/13 00:04:00.003,n,167,2.88,1.08,5.76,22.4,68.3,1014.22,0,0,0,0,0.024376
2021/12/13 00:05:00.001,n,70,6.48,4.32,7.92,22.4,68.3,1014.22,0,0,0,0,0.026131
2021/12/13 00:06:00.000,n,124,5.04,4.68,6.12,22.4,68.4,1014.22,0,0,0,0,0.022659
2021/12/13 00:07:00.010,n,113,4.32,3.96,5.04,22.4,68.5,1014.12,0,0,0,0,0.025253
2021/12/13 00:08:00.008,n,120,2.16,0.36,3.6,22.3,68.7,1014.12,0,0,0,0,0.024376
2021/12/13 00:09:00.004,n,138,5.4,4.68,5.76,22.3,68.7,1014.12,0,0,0,0,0.022659
2021/12/13 00:10:00.000,n,138,8.28,6.48,9.36,22.3,68.8,1014.12,0,0,0,0,0.022659
2021/12/13 00:11:00.000,n,85,3.96,3.24,4.68,22.3,68.9,1014.12,0,0,0,0,0.021782
2021/12/13 00:12:00.000,n,61,2.52,1.44,4.32,22.3,69.1,1014.12,0,0,0,0,0.022659
2021/12/13 00:13:00.000,n,149,3.96,2.52,5.76,22.3,69.2,1014.12,0,0,0,0,0.024376
2021/12/13 00:14:00.008,n,93,7.2,6.12,7.56,22.3,69.2,1014.12,0,0,0,0,0.023537
2021/12/13 00:15:00.005,n,80,2.52,1.44,3.24,22.3,69.3,1014.12,0,0,0,0,0.020905
2021/12/13 00:16:00.002,n,91,2.88,2.52,2.88,22.3,69.4,1014.02,0,0,0,0,0.023537
2021/12/13 00:17:00.001,n,70,3.96,3.24,5.4,22.3,69.4,1014.02,0,0,0,0,0.023537
2021/12/13 00:18:00.015,n,147,2.88,1.44,4.32,22.3,69.5,1014.02,0,0,0,0,0.021782
2021/12/13 00:19:00.000,n,151,8.64,6.48,13.32,22.2,69.6,1014.02,0,0,0,0,0.022659
2021/12/13 00:20:00.000,n,129,2.88,2.16,3.6,22.2,69.8,1014.02,0,0,0,0,0.022659
2021/12/13 00:21:00.000,n,129,3.96,2.16,5.4,22.2,69.8,1013.92,0,0,0,0,0.025253
2021/12/13 00:22:00.000,n,129,6.48,6.48,6.48,22.2,69.8,1013.92,0,0,0,0,0.024376
2021/12/13 00:23:00.003,n,98,2.52,2.16,2.88,22.2,70,1013.92,0,0,0,0,0.025253
2021/12/13 00:24:00.001,n,87,3.6,2.52,4.32,22.2,70.1,1013.82,0,0,0,0,0.022659
2021/12/13 00:25:00.012,n,155,1.08,0.36,1.8,22.2,70.1,1013.82,0,0,0,0,0.025253
2021/12/13 00:26:00.009,n,144,5.76,5.04,6.48,22.2,70,1013.82,0,0,0,0,0.027008
2021/12/13 00:27:00.008,n,140,1.44,0.72,2.88,22.1,70,1013.82,0,0,0,0,0.027008
2021/12/13 00:28:00.000,n,79,2.88,2.16,3.6,22.1,70.3,1013.82,0,0,0,0,0.025253
2021/12/13 00:29:00.000,n,150,2.52,1.08,3.24,22.1,70.3,1013.82,0,0,0,0,0.026131
2021/12/13 00:30:00.000,n,72,3.24,2.52,4.68,22.1,70.3,1013.82,0,0,0,0,0.024376
2021/12/13 00:31:00.000,n,96,5.04,4.32,5.76,22.1,70.3,1013.82,0,0,0,0,0.023537
2021/12/13 00:32:00.008,n,80,3.96,2.88,5.4,22.1,70.4,1013.82,0,0,0,0,0.020905
2021/12/13 00:33:00.005,n,95,4.32,3.24,4.68,22.1,70.5,1013.82,0,0,0,0,0.024376
2021/12/13 00:34:00.002,n,86,3.6,2.88,3.96,22,70.6,1013.82,0,0,0,0,0.021782
2021/12/13 00:35:00.000,n,72,2.88,2.52,5.04,22,70.8,1013.82,0,0,0,0,0.021782
2021/12/13 00:36:00.013,n,85,6.12,5.4,6.48,22,70.8,1013.82,0,0,0,0,0.024376
2021/12/13 00:37:00.000,n,111,4.32,3.96,4.68,22,70.8,1013.82,0,0,0,0,0.021782
2021/12/13 00:38:00.000,n,95,5.4,5.4,6.12,22,71,1013.82,0,0,0,0,0.024376
2021/12/13 00:39:00.004,n,93,2.16,1.08,3.24,22,71.1,1013.82,0,0,0,0,0.025253
2021/12/13 00:40:00.001,n,120,1.44,0.72,2.16,22,71.2,1013.82,0,0,0,0,0.022659
2021/12/13 00:41:00.000,n,156,2.52,2.16,2.88,22,71.2,1013.82,0,0,0,0,0.022659
2021/12/13 00:42:00.000,n,100,4.68,3.96,5.04,22,71.2,1013.82,0,0,0,0,0.027008
2021/12/13 00:43:00.009,n,98,2.88,2.16,3.24,21.9,70.9,1013.82,0,0,0,0,0.026131
2021/12/13 00:44:00.007,n,77,2.88,2.52,3.24,21.9,71.2,1013.82,0,0,0,0,0.020905
2021/12/13 00:45:00.004,n,108,4.68,4.32,5.04,21.9,71.2,1013.72,0,0,0,0,0.024376
2021/12/13 00:46:00.001,n,88,4.68,3.96,5.76,21.9,71.3,1013.72,0,0,0,0,0.021782
2021/12/13 00:47:00.004,n,158,2.52,1.44,3.24,21.9,71.4,1013.72,0,0,0,0,0.022659
2021/12/13 00:48:00.000,n,125,6.12,5.04,6.84,21.9,71.3,1013.62,0,0,0,0,0.021782
2021/12/13 00:49:00.000,n,142,8.64,7.92,9.36,21.9,71.3,1013.62,0,0,0,0,0.024376
2021/12/13 00:50:00.008,n,110,4.32,3.6,4.68,21.9,71.4,1013.52,0,0,0,0,0.020905
2021/12/13 00:51:00.005,n,159,5.04,4.68,10.08,21.9,71.5,1013.52,0,0,0,0,0.021782
2021/12/13 00:52:00.003,n,152,3.96,3.24,4.32,21.9,71.6,1013.52,0,0,0,0,0.020905
2021/12/13 00:53:00.000,n,240,0.72,0.36,1.08,21.8,71.7,1013.52,0,0,0,0,0.020027
2021/12/13 00:54:00.013,n,99,4.68,4.32,5.04,21.8,71.6,1013.52,0,0,0,0,0.020027
2021/12/13 00:55:00.000,n,122,3.96,2.88,4.32,21.8,71.6,1013.52,0,0,0,0,0.01915
2021/12/13 00:56:00.000,n,132,5.04,4.32,5.76,21.8,71.6,1013.52,0,0,0,0,0.021782
2021/12/13 00:57:00.000,n,143,4.32,3.96,5.04,21.8,71.6,1013.52,0,0,0,0,0.016556
2021/12/13 00:58:00.002,n,131,4.32,2.52,5.76,21.8,71.6,1013.52,0,0,0,0,0.020027
2021/12/13 00:59:00.000,n,92,2.16,1.8,2.52,21.8,71.7,1013.52,0,0,0,0,0.016556
2021/12/13 01:00:00.000,n,125,4.32,3.96,4.68,21.8,71.7,1013.52,0,0,0,0,0.016556
2021/12/13 01:01:00.011,n,148,5.4,5.04,5.76,21.8,71.6,1013.42,0,0,0,0,0.015678
2021/12/13 01:02:00.008,n,105,2.88,2.52,3.24,21.8,71.8,1013.42,0,0,0,0,0.018311
2021/12/13 01:03:00.005,n,108,4.32,3.96,5.4,21.8,71.9,1013.42,0,0,0,0,0.013924
2021/12/13 01:04:00.000,n,154,6.48,4.68,10.440002,21.7,72,1013.42,0,0,0,0,0.012207
2021/12/13 01:05:00.001,n,122,2.88,2.16,3.96,21.7,71.8,1013.42,0,0,0,0,0.013924
2021/12/13 01:06:00.000,n,96,4.68,4.32,5.4,21.7,72,1013.42,0,0,0,0,0.023499
2021/12/13 01:07:00.000,n,130,3.6,2.88,4.32,21.7,72,1013.42,0,0,0,0,0.02697
2021/12/13 01:08:00.005,n,134,9.36,5.04,11.16,21.7,71.9,1013.42,0,0,0,0,0.026093
2021/12/13 01:09:00.002,n,142,5.04,3.24,6.48,21.7,71.9,1013.42,0,0,0,0,0.025253
2021/12/13 01:10:00.000,n,130,9.72,8.64,11.16,21.7,71.8,1013.42,0,0,0,0,0.025253
2021/12/13 01:11:00.012,n,139,12.6,10.08,14.4,21.7,71.1,1013.32,0,0,0,0,0.025253
2021/12/13 01:12:00.009,n,131,14.04,11.52,16.2,21.7,70.6,1013.32,0,0,0,0,0.02697
2021/12/13 01:13:00.000,n,140,12.24,10.08,14.04,21.7,70.5,1013.32,0,0,0,0,0.021744
2021/12/13 01:14:00.000,n,144,10.440002,7.92,12.24,21.7,70.3,1013.32,0,0,0,0,0.024376
2021/12/13 01:15:00.000,n,144,6.12,5.4,6.84,21.8,70.4,1013.32,0,0,0,0,0.022621
2021/12/13 01:16:00.000,n,119,6.84,6.12,7.56,21.8,70.4,1013.32,0,0,0,0,0.020866
2021/12/13 01:17:00.000,n,138,6.12,5.04,6.84,21.8,70.4,1013.32,0,0,0,0,0.022621
2021/12/13 01:18:00.008,n,124,9.72,6.84,11.16,21.8,70.3,1013.22,0,0,0,0,0.023499
2021/12/13 01:19:00.005,n,177,3.24,2.16,6.12,21.8,70.1,1013.22,0,0,0,0,0.022621
2021/12/13 01:20:00.003,n,112,6.84,4.32,9.36,21.8,70,1013.22,0,0,0,0,0.021744
2021/12/13 01:21:00.000,n,140,7.2,5.4,8.28,21.8,69.9,1013.22,0,0,0,0,0.020027
2021/12/13 01:22:00.000,n,164,6.12,3.6,10.8,21.8,70,1013.22,0,0,0,0,0.023499
2021/12/13 01:23:00.000,n,97,6.48,6.12,6.84,21.8,69.9,1013.22,0,0,0,0,0.016518
2021/12/13 01:24:00.000,n,117,3.6,3.24,3.96,21.8,69.9,1013.22,0,0,0,0,0.01915
2021/12/13 01:25:00.004,n,161,10.08,7.56,14.76,21.8,69.6,1013.22,0,0,0,0,0.020866
2021/12/13 01:26:00.002,n,112,3.24,2.16,3.96,21.8,69.5,1013.22,0,0,0,0,0.020027
2021/12/13 01:27:00.000,n,130,12.24,10.8,13.32,21.8,69.6,1013.22,0,0,0,0,0.01915
2021/12/13 01:28:00.011,n,145,9,8.64,9.72,21.8,69.6,1013.22,0,0,0,0,0.013924
2021/12/13 01:29:00.008,n,134,5.04,3.96,5.76,21.8,69.7,1013.22,0,0,0,0,0.022621
2021/12/13 01:30:00.004,n,93,3.6,3.6,3.96,21.8,69.7,1013.22,0,0,0,0,0.02697
2021/12/13 01:31:00.002,n,133,11.88,11.16,12.96,21.8,69.4,1013.12,0,0,0,0,0.025253
2021/12/13 01:32:00.000,n,144,7.92,6.48,8.64,21.8,69.3,1013.12,0,0,0,0,0.025253
2021/12/13 01:33:00.000,n,138,9.36,9,10.08,21.8,69.3,1013.12,0,0,0,0,0.02697
2021/12/13 01:34:00.000,n,145,7.92,7.2,13.68,21.8,69.3,1013.12,0,0,0,0,0.024376
2021/12/13 01:35:00.006,n,132,3.24,2.88,3.6,21.8,69.3,1013.12,0,0,0,0,0.025253
2021/12/13 01:36:00.003,n,165,2.52,0.72,4.32,21.8,69.3,1013.12,0,0,0,0,0.026093
2021/12/13 01:37:00.000,n,100,3.24,1.44,5.04,21.8,69.3,1013.12,0,0,0,0,0.023499
2021/12/13 01:38:00.013,n,123,8.28,7.2,9,21.8,69.3,1013.02,0,0,0,0,0.020866
2021/12/13 01:39:00.013,n,128,7.92,3.96,10.08,21.8,69.1,1013.02,0,0,0,0,0.025253
2021/12/13 01:40:00.000,n,150,5.04,2.16,10.08,21.8,69.1,1013.02,0,0,0,0,0.025253
2021/12/13 01:41:00.000,n,149,6.48,5.4,11.16,21.8,69.1,1013.02,0,0,0,0,0.020027
2021/12/13 01:42:00.004,n,123,6.84,6.12,7.56,21.8,69.2,1013.02,0,0,0,0,0.022621
2021/12/13 01:43:00.002,n,130,5.76,3.96,6.48,21.8,69.1,1013.02,0,0,0,0,0.020866
2021/12/13 01:44:00.000,n,170,3.96,3.24,4.32,21.7,69.2,1013.02,0,0,0,0,0.023499
2021/12/13 01:45:00.000,n,154,9,7.92,14.4,21.7,69.1,1013.02,0,0,0,0,0.022621
2021/12/13 01:46:00.009,n,191,3.24,2.16,3.96,21.7,69.2,1013.02,0,0,0,0,0.022621
2021/12/13 01:47:00.008,n,165,11.16,6.48,15.12,21.7,69.2,1013.02,0,0,0,0,0.021744
2021/12/13 01:48:00.004,n,132,9,8.28,9.36,21.7,69.2,1012.92,0,0,0,0,0.024376
2021/12/13 01:49:00.001,n,147,6.48,5.04,9.72,21.7,69.3,1012.92,0,0,0,0,0.022621
2021/12/13 01:50:00.000,n,176,4.32,3.96,5.04,21.7,69.2,1012.92,0,0,0,0,0.020027
2021/12/13 01:51:00.000,n,164,9.72,6.48,12.6,21.7,69.2,1012.92,0,0,0,0,0.020866
2021/12/13 01:52:00.000,n,161,7.56,5.4,11.52,21.7,69.3,1012.92,0,0,0,0,0.01915
2021/12/13 01:53:00.005,n,162,8.64,5.76,12.96,21.7,69.2,1012.92,0,0,0,0,0.020866
2021/12/13 01:54:00.002,n,169,4.68,4.32,4.68,21.7,69.3,1012.92,0,0,0,0,0.01915
2021/12/13 01:55:00.000,n,145,5.04,2.88,8.64,21.7,69.3,1012.92,0,0,0,0,0.020027
2021/12/13 01:56:00.012,n,188,0.72,0,1.08,21.7,69.4,1012.92,0,0,0,0,0.020866
2021/12/13 01:57:00.011,n,176,1.44,0.36,2.52,21.7,69.4,1012.92,0,0,0,0,0.016518
2021/12/13 01:58:00.000,n,188,2.16,1.08,2.88,21.7,69.6,1012.92,0,0,0,0,0.017395
2021/12/13 01:59:00.000,n,168,3.6,2.88,4.68,21.7,69.6,1012.82,0,0,0,0,0.020866
2021/12/13 02:00:00.002,n,164,9.36,6.84,12.96,21.7,69.7,1012.82,0,0,0,0,0.018272
2021/12/13 02:01:00.000,n,186,5.04,4.32,5.4,21.7,69.7,1012.82,0,0,0,0,0.012169
2021/12/13 02:02:00.000,n,159,5.76,3.96,9.72,21.7,70,1012.92,0,0,0,0,0.018272
2021/12/13 02:03:00.000,n,271,1.44,0.72,2.16,21.7,70.3,1012.82,0,0,0,0,0.013924
2021/12/13 02:04:00.010,n,292,2.16,1.8,2.88,21.7,70.7,1012.82,0,0,0,0,0.012169
2021/12/13 02:05:00.007,n,134,0.36,0,0.72,21.7,70.8,1012.82,0,0,0,0,0.016518
2021/12/13 02:06:00.003,n,255,3.6,2.88,3.96,21.7,71.1,1012.82,0,0,0,0,0.018272
2021/12/13 02:07:00.001,n,207,1.8,1.08,2.52,21.7,71.4,1012.82,0,0,0,0,0.016518
2021/12/13 02:08:00.000,n,245,2.52,2.16,3.24,21.7,71.9,1012.82,0,0,0,0,0.013924
2021/12/13 02:09:00.000,n,235,1.8,1.08,2.52,21.6,71.9,1012.82,0,0,0,0,0.016518
2021/12/13 02:10:00.000,n,201,1.08,1.08,1.44,21.6,72.1,1012.82,0,0,0,0,0.018272
2021/12/13 02:11:00.005,n,258,0.36,0,1.08,21.6,72.2,1012.82,0,0,0,0,0.01915
2021/12/13 02:12:00.004,n,255,1.08,0.72,1.44,21.5,72.3,1012.82,0,0,0,0,0.016518
2021/12/13 02:13:00.000,n,258,2.16,1.44,2.16,21.5,72.4,1012.82,0,0,0,0,0.014801
2021/12/13 02:14:00.013,n,189,1.08,0.36,1.8,21.5,72.7,1012.72,0,0,0,0,0.015678
2021/12/13 02:15:00.011,n,154,2.52,2.16,2.88,21.5,72.8,1012.82,0,0,0,0,0.018272
2021/12/13 02:16:00.000,n,275,0.72,0,1.44,21.4,72.7,1012.82,0,0,0,0,0.015678
2021/12/13 02:17:00.000,n,281,2.88,2.52,3.24,21.4,72.8,1012.82,0,0,0,0,0.016518
2021/12/13 02:18:00.002,n,57,0.72,0.36,1.44,21.4,72.9,1012.82,0,0,0,0,0.016518
2021/12/13 02:19:00.000,n,298,0.36,0,0.72,21.4,72.9,1012.82,0,0,0,0,0.013924
2021/12/13 02:20:00.000,n,194,2.52,2.16,2.88,21.4,72.8,1012.82,0,0,0,0,0.015678
2021/12/13 02:21:00.009,n,279,0.72,0.36,1.08,21.4,72.7,1012.82,0,0,0,0,0.021782
2021/12/13 02:22:00.006,n,208,2.16,1.8,2.88,21.4,72.9,1012.82,0,0,0,0,0.029602
2021/12/13 02:23:00.005,n,150,1.44,1.44,1.8,21.3,72.9,1012.82,0,0,0,0,0.029602
2021/12/13 02:24:00.001,n,262,2.16,0,3.96,21.3,73.1,1012.82,0,0,0,0,0.023499
2021/12/13 02:25:00.000,n,283,3.96,2.88,4.68,21.3,73.1,1012.82,0,0,0,0,0.027847
2021/12/13 02:26:00.000,n,160,1.8,1.8,2.52,21.3,73.6,1012.82,0,0,0,0,0.025215
2021/12/13 02:27:00.000,n,270,3.96,3.6,4.68,21.3,73.3,1012.82,0,0,0,0,0.020905
2021/12/13 02:28:00.007,n,291,1.08,0.72,1.8,21.3,73.3,1012.82,0,0,0,0,0.023499
2021/12/13 02:29:00.004,n,332,1.8,1.08,4.32,21.3,73.4,1012.82,0,0,0,0,0.023499
2021/12/13 02:30:00.001,n,293,1.08,0.36,1.08,21.3,73.3,1012.82,0,0,0,0,0.024376
2021/12/13 02:31:00.000,n,299,2.16,1.8,2.16,21.3,73.2,1012.82,0,0,0,0,0.022621
2021/12/13 02:32:00.011,n,247,1.44,0.36,2.52,21.2,73.3,1012.82,0,0,0,0,0.021782
2021/12/13 02:33:00.008,n,134,0.72,0.36,1.44,21.3,73.3,1012.82,0,0,0,0,0.025215
2021/12/13 02:34:00.000,n,254,0.36,0,0.72,21.2,73.3,1012.82,0,0,0,0,0.020905
2021/12/13 02:35:00.001,n,303,1.08,1.08,1.44,21.2,73.2,1012.82,0,0,0,0,0.020027
2021/12/13 02:36:00.000,n,280,2.52,2.16,2.88,21.2,73.2,1012.82,0,0,0,0,0.021782
2021/12/13 02:37:00.000,n,221,1.8,1.08,2.52,21.2,73.4,1012.82,0,0,0,0,0.020905
2021/12/13 02:38:00.000,n,210,0.72,0.36,1.08,21.1,73.3,1012.82,0,0,0,0,0.021782
2021/12/13 02:39:00.008,n,64,1.08,0.72,1.08,21.1,73.4,1012.72,0,0,0,0,0.020905
2021/12/13 02:40:00.005,n,218,0.72,0.72,1.8,21.1,73.3,1012.82,0,0,0,0,0.020027
2021/12/13 02:41:00.004,n,277,3.96,2.88,5.4,21.1,73.3,1012.82,0,0,0,0,0.022621
2021/12/13 02:42:00.002,n,285,2.88,2.16,3.24,21,73.4,1012.82,0,0,0,0,0.021782
2021/12/13 02:43:00.000,n,246,1.8,1.44,2.16,21,73.4,1012.82,0,0,0,0,0.021782
2021/12/13 02:44:00.000,n,169,2.16,0.72,6.48,21,73.6,1012.82,0,0,0,0,0.021782
2021/12/13 02:45:00.000,n,244,3.24,2.88,3.96,21,73.6,1012.82,0,0,0,0,0.021782
2021/12/13 02:46:00.000,n,249,2.88,2.16,3.24,21,73.6,1012.82,0,0,0,0,0.020905
2021/12/13 02:47:00.004,n,260,1.44,0.72,1.8,21,73.6,1012.82,0,0,0,0,0.022621
2021/12/13 02:48:00.001,n,274,2.16,1.8,2.52,21,73.7,1012.82,0,0,0,0,0.017433
2021/12/13 02:49:00.000,n,207,3.96,2.88,5.04,20.9,73.6,1012.82,0,0,0,0,0.020027
2021/12/13 02:50:00.011,n,137,0.72,0.36,1.08,20.9,73.7,1012.82,0,0,0,0,0.018272
2021/12/13 02:51:00.010,n,126,3.24,2.52,3.96,20.9,73.8,1012.82,0,0,0,0,0.018272
2021/12/13 02:52:00.000,n,279,0.72,0.36,1.44,20.9,73.9,1012.82,0,0,0,0,0.016556
2021/12/13 02:53:00.000,n,158,1.8,1.08,2.52,20.9,74,1012.82,0,0,0,0,0.017433
2021/12/13 02:54:00.002,n,204,3.24,2.52,5.4,20.9,73.8,1012.82,0,0,0,0,0.018272
2021/12/13 02:55:00.000,n,116,1.8,1.44,2.16,20.9,73.8,1012.82,0,0,0,0,0.01915
2021/12/13 02:56:00.000,n,229,1.8,0.36,2.88,20.9,74,1012.82,0,0,0,0,0.025253
2021/12/13 02:57:00.007,n,197,2.52,2.16,2.88,20.9,73.9,1012.82,0,0,0,0,0.026093
2021/12/13 02:58:00.004,n,126,2.16,1.44,2.52,20.9,74.1,1012.82,0,0,0,0,0.028725
2021/12/13 02:59:00.001,n,154,2.16,1.44,3.24,20.9,74.1,1012.82,0,0,0,0,0.030479
2021/12/13 03:00:00.014,n,153,4.68,3.96,5.76,20.9,73.9,1012.82,0,0,0,0,0.027847
2021/12/13 03:01:00.000,n,204,3.24,2.52,3.6,20.9,73.9,1012.92,0,0,0,0,0.02697
2021/12/13 03:02:00.000,n,159,4.32,3.96,4.68,20.9,73.9,1012.92,0,0,0,0,0.02697
2021/12/13 03:03:00.000,n,191,2.16,1.44,2.88,20.9,74.1,1012.82,0,0,0,0,0.030479
2021/12/13 03:04:00.002,n,279,1.44,1.08,1.8,20.9,74.9,1012.82,0,0,0,0,0.023499
2021/12/13 03:05:00.000,n,321,0.72,0,1.08,20.9,74.7,1012.82,0,0,0,0,0.026093
2021/12/13 03:06:00.000,n,196,1.8,1.44,2.16,20.9,74.2,1012.82,0,0,0,0,0.026093
2021/12/13 03:07:00.010,n,169,1.8,1.08,2.52,20.9,74.2,1012.82,0,0,0,0,0.025253
2021/12/13 03:08:00.008,n,230,2.16,1.8,2.52,20.9,74.1,1012.82,0,0,0,0,0.025253
2021/12/13 03:09:00.005,n,184,2.16,1.8,2.88,20.9,74.2,1012.72,0,0,0,0,0.022621
2021/12/13 03:10:00.000,n,164,3.96,3.6,4.68,20.9,74.1,1012.72,0,0,0,0,0.024376
2021/12/13 03:11:00.000,n,195,2.88,2.16,3.6,20.8,74.2,1012.72,0,0,0,0,0.026093
2021/12/13 03:12:00.000,n,231,2.52,1.08,2.88,20.8,74.3,1012.72,0,0,0,0,0.026093
2021/12/13 03:13:00.000,n,156,10.440002,5.4,12.6,20.8,74.3,1012.72,0,0,0,0,0.020905
2021/12/13 03:14:00.007,n,146,4.32,3.96,4.68,20.8,74.4,1012.72,0,0,0,0,0.025253
2021/12/13 03:15:00.004,n,177,4.32,0.72,6.84,20.8,74.4,1012.72,0,0,0,0,0.020027
2021/12/13 03:16:00.002,n,154,3.6,2.88,4.32,20.8,74.4,1012.72,0,0,0,0,0.024376
2021/12/13 03:17:00.000,n,101,1.44,0.72,1.8,20.8,74.5,1012.72,0,0,0,0,0.024376
2021/12/13 03:18:00.012,n,182,7.92,6.12,11.88,20.8,74.3,1012.72,0,0,0,0,0.021744
2021/12/13 03:19:00.000,n,178,2.16,1.8,3.24,20.8,74.3,1012.72,0,0,0,0,0.025253
2021/12/13 03:20:00.000,n,183,2.88,2.88,3.24,20.8,74.4,1012.72,0,0,0,0,0.023499
2021/12/13 03:21:00.004,n,164,11.16,7.2,14.4,20.8,74.4,1012.62,0,0,0,0,0.023499
2021/12/13 03:22:00.001,n,158,11.52,7.92,14.04,20.8,74.5,1012.72,0,0,0,0,0.025253
2021/12/13 03:23:00.000,n,195,9.72,9,10.08,20.8,74.6,1012.62,0,0,0,0,0.021744
2021/12/13 03:24:00.000,n,158,3.6,2.88,3.96,20.7,74.7,1012.62,0,0,0,0,0.021744
2021/12/13 03:25:00.009,n,196,4.68,4.32,5.4,20.7,74.8,1012.72,0,0,0,0,0.018311
2021/12/13 03:26:00.007,n,153,2.52,2.16,2.88,20.7,74.9,1012.72,0,0,0,0,0.018311
2021/12/13 03:27:00.004,n,172,3.6,1.8,5.04,20.7,75,1012.72,0,0,0,0,0.020905
2021/12/13 03:28:00.000,n,210,5.4,4.68,6.48,20.7,75,1012.72,0,0,0,0,0.020905
2021/12/13 03:29:00.000,n,186,7.2,5.76,8.64,20.7,75,1012.72,0,0,0,0,0.018311
2021/12/13 03:30:00.000,n,190,3.96,3.24,4.68,20.7,75.1,1012.72,0,0,0,0,0.017395
2021/12/13 03:31:00.000,n,218,5.04,4.32,5.4,20.6,75.2,1012.72,0,0,0,0,0.024376
2021/12/13 03:32:00.004,n,135,3.96,3.6,3.96,20.6,75.2,1012.72,0,0,0,0,0.028725
2021/12/13 03:33:00.002,n,155,10.08,6.48,13.68,20.6,75.3,1012.72,0,0,0,0,0.023499
2021/12/13 03:34:00.000,n,186,6.48,4.68,11.16,20.6,75.3,1012.82,0,0,0,0,0.025253
2021/12/13 03:35:00.013,n,174,13.32,9.36,15.48,20.6,75.4,1012.82,0,0,0,0,0.026131
2021/12/13 03:36:00.010,n,190,4.68,4.68,5.04,20.6,75.5,1012.82,0,0,0,0,0.026131
2021/12/13 03:37:00.000,n,191,8.28,7.2,11.16,20.6,75.5,1012.82,0,0,0,0,0.026131
2021/12/13 03:38:00.000,n,163,9.36,6.48,11.88,20.6,75.6,1012.82,0,0,0,0,0.026131
2021/12/13 03:39:00.000,n,171,1.44,0.36,2.16,20.6,75.7,1012.92,0,0,0,0,0.024376
2021/12/13 03:40:00.000,n,176,6.84,5.76,11.88,20.5,75.7,1012.92,0,0,0,0,0.024376
2021/12/13 03:41:00.000,n,164,10.8,7.92,15.48,20.5,75.6,1012.92,0,0,0,0,0.026131
2021/12/13 03:42:00.007,n,189,2.52,1.8,4.68,20.5,75.6,1013.02,0,0,0,0,0.023499
2021/12/13 03:43:00.005,n,166,6.84,3.6,11.52,20.5,75.6,1013.02,0,0,0,0,0.020027
2021/12/13 03:44:00.001,n,119,2.16,1.08,3.96,20.5,75.6,1013.02,0,0,0,0,0.024376
2021/12/13 03:45:00.015,n,164,3.96,2.88,5.04,20.5,75.6,1013.02,0,0,0,0,0.022659
2021/12/13 03:46:00.000,n,188,3.96,3.24,4.32,20.5,75.6,1013.02,0,0,0,0,0.020027
2021/12/13 03:47:00.000,n,200,6.12,5.76,6.48,20.5,75.6,1013.02,0,0,0,0,0.020905
2021/12/13 03:48:00.000,n,146,3.96,2.16,5.04,20.5,75.6,1013.02,0,0,0,0,0.023499
2021/12/13 03:49:00.005,n,181,3.96,3.96,4.32,20.5,75.7,1013.02,0,0,0,0,0.01915
2021/12/13 03:50:00.002,n,100,1.44,0.72,2.16,20.5,75.7,1013.02,0,0,0,0,0.017433
2021/12/13 03:51:00.000,n,192,3.24,2.16,3.6,20.5,75.8,1013.02,0,0,0,0,0.01915
2021/12/13 03:52:00.000,n,259,1.08,0.36,1.44,20.5,75.9,1013.02,0,0,0,0,0.020027
2021/12/13 03:53:00.010,n,167,1.8,1.44,2.52,20.5,75.9,1013.02,0,0,0,0,0.015678
2021/12/13 03:54:00.007,n,168,3.24,2.88,3.6,20.5,75.9,1013.02,0,0,0,0,0.01915
2021/12/13 03:55:00.000,n,152,4.32,3.6,4.68,20.5,76,1013.02,0,0,0,0,0.01915
2021/12/13 03:56:00.000,n,159,2.52,1.44,3.24,20.5,76.1,1013.02,0,0,0,0,0.018311
2021/12/13 03:57:00.000,n,156,3.24,2.88,3.6,20.5,76.2,1013.02,0,0,0,0,0.020065
2021/12/13 03:58:00.000,n,223,3.24,2.88,3.6,20.5,76.3,1013.02,0,0,0,0,0.024376
2021/12/13 03:59:00.005,n,140,4.32,2.52,5.04,20.4,76.1,1013.02,0,0,0,0,0.026131
2021/12/13 04:00:00.002,n,179,3.24,2.16,3.96,20.4,76,1013.02,0,0,0,0,0.027008
2021/12/13 04:01:00.000,n,167,5.76,3.96,10.440002,20.4,76.2,1013.02,0,0,0,0,0.025291
2021/12/13 04:02:00.012,n,167,8.64,6.12,12.96,20.4,75.9,1013.02,0,0,0,0,0.024376
2021/12/13 04:03:00.010,n,205,2.88,1.8,5.4,20.3,75.8,1013.02,0,0,0,0,0.025291
2021/12/13 04:04:00.000,n,222,7.2,6.48,9,20.3,75.9,1013.02,0,0,0,0,0.023537
2021/12/13 04:05:00.000,n,226,4.68,4.32,5.04,20.3,76,1013.02,0,0,0,0,0.025291
2021/12/13 04:06:00.002,n,168,8.28,5.4,12.24,20.3,75.8,1013.02,0,0,0,0,0.025291
2021/12/13 04:07:00.000,n,213,1.44,0.36,4.32,20.3,75.9,1013.12,0,0,0,0,0.025291
2021/12/13 04:08:00.000,n,232,3.96,2.88,5.04,20.3,76,1013.12,0,0,0,0,0.027008
2021/12/13 04:09:00.009,n,352,0.36,0,1.08,20.2,76.1,1013.12,0,0,0,0,0.024376
2021/12/13 04:10:00.009,n,301,3.24,2.52,3.96,20.2,76.6,1013.12,0,0,0,0,0.026131
2021/12/13 04:11:00.004,n,251,0.72,0.72,0.72,20.3,76.3,1013.12,0,0,0,0,0.027885
2021/12/13 04:12:00.002,n,230,5.76,5.4,6.12,20.3,76.1,1013.12,0,0,0,0,0.027008
2021/12/13 04:13:00.000,n,298,1.44,1.08,2.16,20.2,76.2,1013.12,0,0,0,0,0.029602
2021/12/13 04:14:00.000,n,236,1.8,1.44,2.52,20.2,76.1,1013.12,0,0,0,0,0.027008
2021/12/13 04:15:00.000,n,268,2.88,2.52,3.24,20.2,76.3,1013.12,0,0,0,0,0.031357
2021/12/13 04:16:00.007,n,251,1.8,1.44,2.16,20.2,76.5,1013.12,0,0,0,0,0.029602
2021/12/13 04:17:00.004,n,276,2.16,1.8,2.52,20.2,76.3,1013.12,0,0,0,0,0.032234
2021/12/13 04:18:00.001,n,145,1.44,1.08,1.8,20.2,76.4,1013.12,0,0,0,0,0.033951
2021/12/13 04:19:00.000,n,253,2.52,2.16,2.52,20.2,76.3,1013.12,0,0,0,0,0.043526
2021/12/13 04:20:00.012,n,272,2.52,2.16,3.6,20.2,76.4,1013.12,0,0,0,0,0.041809
2021/12/13 04:21:00.009,n,278,0.36,0,0.72,20.2,76.5,1013.12,0,0,0,0,0.058327
2021/12/13 04:22:00.000,n,243,0.72,0.36,1.08,20.2,76.5,1013.12,0,0,0,0,0.074844
2021/12/13 04:23:00.000,n,273,1.44,1.44,1.8,20.2,76.4,1013.12,0,0,0,0,0.090561
2021/12/13 04:24:00.002,n,133,3.24,2.16,3.96,20.1,76.2,1013.12,0,0,0,0,0.125313
2021/12/13 04:25:00.000,n,233,1.08,0.72,1.44,20.1,76.2,1013.12,0,0,0,0,0.160103
2021/12/13 04:26:00.000,n,36,3.24,2.52,3.6,20.1,76.3,1013.12,0,0,0,0,0.206223
2021/12/13 04:27:00.010,n,334,0.36,0.36,0.72,20.1,76.3,1013.12,0,0,0,0,0.262718
2021/12/13 04:28:00.007,n,213,5.04,4.32,5.76,20.1,76.3,1013.22,0,0,0,0,0.326996
2021/12/13 04:29:00.004,n,166,1.08,1.08,1.44,20.1,76.2,1013.22,0,0,0,0,0.400009
2021/12/13 04:30:00.000,n,294,1.8,1.08,2.88,20.1,76,1013.22,0,0,0,0,0.489388
2021/12/13 04:31:00.000,n,261,6.12,3.96,7.56,20.1,75.7,1013.12,0,0,0,0,0.587502
2021/12/13 04:32:00.000,n,199,0.36,0.36,0.72,20.1,75.7,1013.12,0,0,0,0,0.703583
2021/12/13 04:33:00.000,n,269,2.88,1.44,3.96,20,75.7,1013.22,0,0,0,0,0.833244
2021/12/13 04:34:00.006,n,293,1.8,1.44,2.16,20,75.7,1013.22,0,0,0,0,0.97496
2021/12/13 04:35:00.003,n,299,1.44,1.08,1.8,20,75.9,1013.22,0,0,0,0,1.134834
2021/12/13 04:36:00.000,n,81,0.72,0.36,2.16,20,75.9,1013.22,0,0,0,0,1.315346
2021/12/13 04:37:00.000,n,240,4.68,2.88,6.84,20,75.5,1013.22,0,0,0,0,1.509552
2021/12/13 04:38:00.010,n,200,4.32,3.6,5.04,20,75.5,1013.22,0,0,0,0,1.714783
2021/12/13 04:39:00.007,n,204,4.68,0.36,7.2,20,75.3,1013.22,0,0,0,0,1.937065
2021/12/13 04:40:00.000,n,251,1.44,1.08,2.16,20,75.4,1013.22,0,0,0,0,2.169266
2021/12/13 04:41:00.002,n,238,5.76,5.04,6.48,20,75.3,1013.22,0,0,0,0,2.42218
2021/12/13 04:42:00.000,n,214,2.88,1.44,4.32,20,75.3,1013.22,0,0,0,0,2.68425
2021/12/13 04:43:00.000,n,156,0.36,0.36,0.36,20,75.4,1013.22,0,0,0,0,2.961426
2021/12/13 04:44:00.008,n,233,1.08,0.36,1.44,20,75.5,1013.22,0,0,0,0,3.252831
2021/12/13 04:45:00.005,n,347,1.44,0.72,2.16,20,75.4,1013.22,0,0,0,0,3.559532
2021/12/13 04:46:00.002,n,302,1.8,1.08,2.16,20,75.5,1013.22,0,0,0,0,3.884735
2021/12/13 04:47:00.000,n,209,4.32,3.24,5.76,20,75.3,1013.22,0,0,0,0,4.226532
2021/12/13 04:48:00.012,n,274,0.72,0.36,1.44,20,75.3,1013.32,0,0,0,0,4.589081
2021/12/13 04:49:00.000,n,230,1.8,1.44,2.16,20,75.4,1013.32,0,0,0,0,4.987107
2021/12/13 04:50:00.000,n,270,5.4,4.32,6.12,19.9,75.2,1013.32,0,0,0,0,5.4319
2021/12/13 04:51:00.004,n,133,2.88,2.16,3.96,19.9,75.5,1013.32,0,0,0,0,5.944863
2021/12/13 04:52:00.001,n,296,1.8,1.08,2.16,19.9,75.3,1013.32,0,0,0,0,6.561013
2021/12/13 04:53:00.000,n,220,1.08,0.36,1.08,19.9,75.2,1013.42,0,0,0,0,7.316475
2021/12/13 04:54:00.000,n,249,2.16,1.08,2.52,19.9,75.2,1013.42,0,0,0,0,8.208428
2021/12/13 04:55:00.009,n,256,1.44,0.72,1.8,19.9,75.3,1013.42,0,0,0,0,9.326592